Volver al catálogo

STARLINK-36156

ActivoComunicacionesVLEO
NORAD 67006·PAYLOAD·🇺🇸 United States

Lanzado Dec 10, 2025 desde Vandenberg Space Force Base

Loading…

Próximos Pases (próximas 24 horas)

TLE

ActualizadoSource: CelesTrak SupGP

Época: Sep 14, 2026, 21:34 UTC

1 67006C 25293D   26257.89909722 -.00044140  00000+0 -37001-2 0  2572
2 67006  70.0019 337.5436 0003473 270.1818 169.3131 14.98341457    14

Sigue STARLINK-36156 en tiempo real con AllMySat

Download on the App Store